Temperature
16 17 17 17 18 19 19 19 20 20 19 19 18 18 18 18 18 18 18 17 17 17 17 18 18 18 18 18 17 17 17 17 17 17 17 17 17 17 18 18 18 18 18
18 18 18 18 19 18 18 19 20 19 18 18 18 18 18 17 17 17 17 17 17 17 17 18 18 18 18 17 17 16 16 16 16 16 16 15 16 17 18 19 19 19 18
18 19 21 20 18 18 19 20 21 20 19 18 18 18 17 17 17 16 16 17 18 18 18 18 17 17 16 16 17 16 16 15 15 16 15 15 16 16 17 18 19 19 18
16 16 16 17 17 18 18 19 20 21 20 20 18 17 16 16 16 16 15 16 16 17 17 17 17 17 16 16 16 15 15 15 15 15 15 15 15 15 16 17 18 18 18
17 18 17 17 18 18 18 19 19 20 20 20 18 17 16 15 14 14 15 15 16 16 16 16 16 16 16 16 15 15 15 14 14 15 15 15 15 15 15 16 16 17 17
19 19 19 18 17 16 16 16 17 18 19 18 17 16 15 15 14 15 15 15 15 15 16 16 16 15 15 15 14 14 14 14 14 14 14 14 14 15 15 16 16 16 17
18 18 18 18 17 16 16 15 16 17 17 17 17 15 15 15 15 14 15 15 15 15 15 15 15 14 14 14 14 13 14 14 14 14 14 14 14 14 14 14 15 15 15
16 16 16 15 15 14 15 15 15 15 14 14 15 15 14 15 14 14 14 14 14 15 15 15 14 14 14 14 14 14 14 13 13 13 13 13 14 14 14 14 14 14 15
17 17 16 15 15 15 14 14 14 14 14 14 14 14 14 14 13 13 13 13 13 13 14 14 14 14 14 14 14 14 13 13 13 13 13 13 13 13 13 13 14 14 14
17 16 16 15 15 15 15 15 14 14 14 14 14 14 14 14 13 13 13 13 13 13 13 13 13 13 13 13 13 13 13 13 13 13 13 13 13 13 13 13 13 13 13
16 15 15 15 15 14 14 14 14 13 13 13 14 14 14 13 13 13 13 13 13 13 13 12 12 12 13 13 13 13 13 13 13 13 13 13 13 13 13 13 13 13 13
15 14 14 14 14 14 13 13 13 13 13 14 14 14 14 13 13 13 13 13 13 13 13 12 12 12 12 12 12 12 12 12 12 12 12 12 12 12 12 12 12 13 13
14 13 13 14 14 13 12 11 12 13 13 14 14 14 13 13 13 13 13 13 13 13 13 12 12 12 12 12 12 12 11 11 11 11 11 11 11 11 11 12 12 13 13
12 12 12 13 13 12 12 11 12 13 13 14 14 13 13 13 13 13 13 13 13 13 13 12 11 11 11 11 11 11 11 11 11 11 11 11 11 11 11 11 12 12 12
12 11 11 12 11 11 12 11 12 13 13 13 13 13 13 13 13 13 12 12 12 13 13 12 11 11 11 11 11 11 11 11 11 11 11 11 11 11 11 11 11 11 11
12 12 11 11 11 11 11 12 13 12 12 12 12 12 13 13 13 12 12 12 12 12 12 12 12 12 11 11 11 11 11 11 10 11 11 11 11 11 11 11 11 11 11
12 11 11 12 11 11 12 12 12 11 12 12 12 12 12 12 13 12 12 12 12 12 12 12 12 12 12 11 11 11 11 11 11 11 11 11 11 11 11 11 11 11 11
13 12 11 11 11 11 11 11 12 12 12 12 12 12 12 12 12 12 12 12 12 12 12 11 12 12 11 11 11 11 11 11 11 11 11 11 11 11 11 11 11 11 12
13 12 12 11 11 11 11 11 11 12 12 12 12 12 11 11 11 11 12 12 12 11 11 11 11 11 11 11 11 11 11 11 11 11 11 11 10 10 11 11 11 11 11
14 13 12 11 11 11 11 11 11 11 11 11 11 11 11 11 11 11 11 11 11 11 11 11 11 11 11 11 11 11 11 11 11 10 10 10 10 10 10 10 11 11 11
14 13 12 11 11 10 10 10 10 10 11 11 11 10 10 10 10 10 10 11 11 11 11 11 11 10 10 10 10 10 10 10 10 10 10 9 9 9 9 10 10 10 10
14 13 12 11 11 10 10 10 10 10 10 10 10 10 10 10 10 10 10 10 11 10 10 10 10 10 10 10 10 10 10 10 9 9 9 9 9 9 9 9 9 9 9
14 13 12 11 11 11 11 11 10 10 10 10 10 10 10 10 10 10 10 10 10 10 10 10 10 10 10 9 9 9 9 9 9 9 8 8 9 9 9 8 8 9 9
14 13 12 11 11 11 11 11 10 10 10 9 9 9 9 9 9 10 10 10 10 9 9 10 10 10 9 9 9 8 8 9 8 8 8 8 8 8 8 8 8 8 8
14 13 12 12 11 11 11 11 10 10 9 9 8 8 9 9 9 9 9 10 10 10 10 10 9 9 9 9 8 8 9 9 9 9 8 8 8 8 8 8 7 7 7
14 13 12 12 12 11 11 11 10 10 9 9 8 8 8 8 9 9 9 9 10 9 9 9 9 9 9 9 9 9 9 8 8 8 8 8 8 7 7 7 7 7 6
Wind_Speed
12 17 17 15 14 12 8 4 4 5 6 6 6 6 6 5 5 6 8 10 10 9 8 5 5 3 4 6 6 5 7 6 3 4 6 8 10 9 11 10 9 9 8
7 5 6 12 16 14 10 4 2 1 4 5 6 6 4 3 3 3 4 6 6 6 3 1 1 3 4 6 6 6 5 5 4 4 3 6 7 7 8 8 9 9 6
5 7 9 6 8 12 8 4 2 7 8 7 5 2 2 2 2 2 1 2 3 2 1 2 2 4 4 6 7 8 9 9 6 8 7 6 5 3 3 3 5 5 4
7 8 12 10 11 12 8 5 7 12 12 6 5 6 3 5 5 2 2 2 3 4 2 2 2 3 3 5 6 7 7 8 7 6 8 9 4 3 3 3 3 3 3
8 10 9 8 9 8 6 6 8 9 5 5 3 5 8 11 5 3 3 1 3 5 3 1 2 3 2 4 4 5 5 5 6 6 4 4 5 5 5 5 3 3 4
11 12 11 8 5 6 6 5 8 9 6 2 4 3 8 10 7 4 3 3 3 3 1 1 3 3 2 3 4 4 4 4 3 4 4 3 3 4 5 7 6 5 4
11 13 13 13 10 7 7 8 7 8 9 8 7 8 10 10 8 5 3 2 2 1 1 1 2 2 3 4 4 3 4 3 3 2 2 2 3 2 2 3 4 4 3
11 11 12 13 15 15 12 7 4 5 5 1 4 6 8 7 4 3 4 3 2 2 2 3 2 3 4 5 5 4 4 4 4 4 4 3 2 1 1 1 2 3 2
10 10 11 11 12 14 13 10 6 5 5 6 7 8 7 7 6 7 6 5 3 2 3 4 5 5 6 6 5 4 4 4 4 5 6 5 5 6 5 3 1 1 2
9 9 8 9 10 10 9 7 8 8 7 10 11 11 11 9 8 6 5 5 3 3 6 6 6 5 5 5 4 3 3 4 4 4 5 5 3 4 5 5 3 1 2
9 8 8 8 8 9 7 3 2 4 7 8 7 8 10 7 5 4 5 5 4 4 5 5 4 3 3 4 4 4 4 5 5 5 6 7 6 5 5 5 4 3 2
8 6 6 6 7 9 11 10 5 0 4 6 9 10 10 6 4 5 5 4 5 5 5 4 4 2 3 3 5 6 6 8 8 7 7 6 5 5 5 4 4 3 2
7 4 2 3 5 5 4 3 2 2 4 7 9 9 9 7 5 7 6 6 7 7 6 6 5 4 4 4 5 6 7 7 7 7 6 5 5 5 5 6 5 5 4
6 1 3 5 5 3 3 7 3 2 3 5 7 6 7 7 4 7 8 8 8 7 6 5 5 5 5 5 6 7 7 6 6 5 4 4 4 4 5 6 7 7 7
5 6 5 4 3 2 4 9 2 4 5 4 4 3 4 5 5 7 9 8 7 7 6 6 6 6 5 5 6 6 6 6 6 6 6 5 6 4 3 3 5 6 5
5 8 7 7 7 7 6 3 4 3 3 3 2 4 4 4 5 6 8 7 7 7 7 7 7 7 6 7 9 8 7 7 7 7 7 8 9 8 7 7 6 5 5
6 8 7 7 7 7 6 3 0 2 2 4 2 3 4 4 5 8 9 8 6 6 7 6 6 7 5 8 12 11 8 7 6 6 7 8 8 8 7 9 10 10 9
7 8 7 7 6 4 2 2 1 1 3 5 4 3 4 5 6 8 9 7 6 7 6 5 5 6 5 8 14 12 7 6 6 6 6 7 8 9 7 7 10 10 10
7 7 7 6 5 4 2 2 2 2 4 3 4 4 4 6 7 5 4 4 5 5 5 6 6 6 6 5 11 9 5 5 6 7 7 7 8 11 13 11 10 10 10
7 7 7 6 5 4 3 3 4 5 5 4 4 4 4 5 5 5 2 2 5 6 7 7 6 7 7 6 5 7 4 4 5 5 7 9 9 10 12 9 8 9 9
8 8 8 7 6 4 4 5 5 5 5 4 3 3 4 4 4 4 2 4 8 9 8 8 6 6 6 7 8 7 4 5 5 5 5 6 8 10 11 9 6 4 6
8 9 8 7 5 5 6 6 5 4 4 4 4 4 5 5 3 4 4 6 10 10 7 8 6 4 5 8 10 12 9 5 5 4 4 4 6 9 8 8 8 9 6
9 9 9 8 6 6 7 7 6 5 5 6 5 4 4 4 4 4 4 6 8 8 7 7 6 4 4 5 10 13 11 9 5 3 4 5 7 7 6 9 9 8 7
9 9 9 8 8 8 8 7 5 6 6 6 5 4 4 4 4 4 4 5 7 7 5 6 6 5 5 4 5 5 5 6 5 4 5 5 5 7 7 6 7 7 6
9 9 10 10 11 10 9 8 8 9 9 8 7 5 4 4 4 4 2 4 5 8 8 7 7 6 5 4 5 5 4 2 2 2 2 3 4 5 5 5 5 6 7
10 10 11 12 11 9 9 9 10 11 10 9 8 7 6 5 4 4 5 7 4 7 9 11 9 4 5 9 8 5 3 3 2 2 2 3 3 3 4 4 5 6 7
Wind_Direction
31 27 15 19 20 9 359 310 239 216 196 197 198 209 215 204 200 210 198 194 196 196 196 199 217 231 249 268 279 287 283 272 250 265 269 262 260 259 258 252 251 251 249
358 359 343 355 4 355 357 345 249 271 273 245 220 210 182 199 213 227 219 188 173 157 166 127 339 317 309 299 286 272 278 274 223 235 277 281 276 256 249 241 237 246 247
271 278 276 226 249 264 278 290 297 274 267 281 251 242 180 188 119 115 54 357 356 7 17 22 339 301 286 284 286 277 270 276 253 224 239 264 258 283 284 267 251 249 249
262 244 258 267 252 246 248 244 231 241 233 205 259 237 125 64 72 88 102 40 335 303 331 344 309 295 294 285 283 287 284 279 281 261 235 242 244 236 293 307 299 283 257
307 287 269 276 288 283 270 261 258 253 235 136 242 236 107 92 91 111 82 18 288 279 267 317 308 307 302 297 312 327 312 288 286 286 277 247 241 232 228 263 289 291 261
313 306 302 305 316 313 316 309 298 285 271 137 139 152 141 136 153 153 185 232 245 252 289 335 341 329 316 305 317 324 325 319 302 288 270 252 242 240 227 240 247 256 266
302 303 306 309 306 293 277 264 261 272 258 212 172 173 152 139 148 156 169 208 212 166 39 357 330 328 318 325 326 322 324 326 333 334 307 274 254 242 234 250 271 270 278
266 269 279 294 302 298 280 262 252 264 274 275 91 68 70 80 92 152 181 184 159 132 66 39 13 352 0 8 5 357 350 349 359 26 31 15 17 341 258 225 249 267 268
267 266 272 270 273 274 271 266 231 207 160 138 124 116 120 136 163 184 179 162 150 133 91 62 51 44 38 28 21 13 356 354 15 39 51 45 18 8 351 329 279 251 300
293 299 311 305 290 274 269 249 184 171 171 170 172 158 156 150 158 170 146 119 115 109 94 79 68 60 48 29 18 359 2 26 29 31 34 49 28 3 351 342 335 256 177
298 307 320 327 337 346 348 6 82 158 189 180 170 156 129 132 151 140 121 114 104 102 104 97 82 47 18 21 14 7 13 31 24 29 48 48 41 25 14 352 326 300 231
294 310 324 1 35 50 46 35 38 13 218 179 156 143 122 124 109 88 75 73 77 80 83 84 74 41 20 19 21 18 22 31 34 39 46 43 50 50 42 14 358 330 315
301 324 3 51 44 65 76 357 278 234 225 161 131 129 130 127 118 90 68 67 76 70 67 71 66 50 44 43 42 51 54 56 46 34 33 26 38 43 32 20 5 342 335
283 141 94 74 49 35 343 274 263 334 297 140 129 120 130 137 144 112 100 96 99 100 97 85 68 46 40 50 54 72 77 58 41 24 17 19 22 23 21 15 8 1 357
250 181 163 130 107 222 221 259 356 357 0 61 122 153 145 144 147 119 114 107 99 99 96 79 63 52 47 50 70 86 78 51 39 23 16 29 36 38 20 5 9 8 6
226 189 187 189 184 198 223 275 22 2 16 61 119 179 165 153 125 125 119 105 97 87 74 64 62 59 51 64 84 91 83 66 52 32 10 21 29 25 24 23 31 36 26
208 194 194 195 198 200 201 203 96 325 106 107 120 144 145 133 106 126 130 128 113 99 78 68 77 76 67 92 96 95 89 69 49 36 24 34 30 25 18 18 33 43 44
222 217 207 197 192 193 210 275 335 68 100 92 93 98 95 106 116 124 137 143 126 110 88 60 63 77 67 104 103 92 79 68 51 42 35 44 43 30 18 28 35 30 28
207 203 192 182 183 206 235 267 275 202 154 121 98 100 107 95 94 109 145 145 126 109 86 59 62 73 53 67 102 94 80 71 55 44 37 36 36 19 25 36 32 27 15
188 183 180 172 182 213 231 241 227 194 172 158 130 120 113 118 140 144 146 104 117 117 102 83 68 77 65 36 86 97 89 74 63 48 34 37 37 29 31 40 33 29 360
183 169 167 178 197 203 187 201 200 193 168 148 127 122 135 131 144 133 97 111 119 112 100 88 68 68 77 63 68 89 93 96 88 73 45 23 39 50 36 35 35 0 326
178 171 170 188 199 199 188 193 196 191 159 147 159 167 148 136 136 121 106 117 120 117 114 107 90 62 68 79 75 73 72 80 83 65 42 20 29 64 49 33 23 17 12
180 178 178 179 194 201 194 191 199 169 156 163 174 163 121 115 108 113 127 130 139 143 144 134 133 138 117 96 82 72 63 55 58 51 35 16 28 38 40 23 25 39 41
185 178 174 178 198 205 203 206 182 161 156 162 162 147 142 143 113 107 131 146 157 153 151 153 154 153 138 117 97 81 65 51 40 19 17 23 28 44 36 25 34 45 50
184 178 184 190 207 203 201 196 179 167 167 167 165 155 141 138 119 103 126 168 169 174 170 168 163 158 138 132 118 106 94 60 13 15 14 29 46 56 55 57 52 51 52
182 185 192 199 211 203 199 187 175 170 169 172 174 165 148 136 132 130 92 50 95 140 153 152 150 132 131 145 146 148 118 62 51 71 73 79 78 81 74 69 58 46 42
Height
1512 1511 1511 1512 1514 1515 1517 1517 1517 1516 1516 1516 1517 1517 1516 1514 1513 1515 1515 1516 1518 1519 1521 1523 1525 1526 1526 1526 1525 1523 1522 1521 1522 1520 1518 1517 1518 1517 1516 1516 1516 1516 1516
1509 1510 1509 1511 1508 1513 1513 1511 1511 1513 1514 1514 1512 1510 1509 1509 1507 1509 1512 1514 1516 1515 1517 1517 1519 1521 1521 1520 1520 1518 1516 1514 1515 1515 1512 1509 1508 1509 1509 1509 1509 1510 1511
1507 1507 1504 1507 1519 1517 1510 1504 1502 1504 1505 1507 1506 1504 1503 1504 1503 1502 1510 1515 1516 1514 1513 1513 1514 1517 1516 1515 1514 1513 1509 1506 1506 1509 1510 1508 1502 1503 1503 1503 1502 1504 1505
1506 1508 1506 1503 1501 1503 1501 1499 1497 1496 1494 1493 1499 1498 1495 1497 1498 1500 1506 1509 1510 1511 1511 1510 1511 1511 1510 1510 1507 1505 1503 1501 1500 1501 1500 1501 1500 1501 1498 1500 1499 1500 1500
1504 1504 1503 1500 1496 1495 1494 1492 1491 1489 1488 1480 1494 1490 1485 1486 1491 1494 1499 1503 1507 1509 1508 1506 1507 1506 1506 1505 1502 1500 1499 1498 1497 1495 1493 1493 1494 1495 1495 1496 1497 1497 1498
1500 1499 1496 1494 1492 1490 1487 1485 1486 1485 1483 1473 1477 1479 1481 1481 1486 1493 1499 1502 1502 1503 1502 1502 1503 1502 1501 1500 1499 1498 1496 1494 1493 1490 1489 1490 1491 1491 1491 1491 1491 1491 1491
1501 1498 1495 1491 1488 1485 1482 1481 1481 1481 1479 1469 1465 1465 1470 1477 1484 1490 1493 1496 1496 1496 1497 1498 1499 1498 1499 1497 1497 1495 1493 1493 1491 1488 1488 1487 1487 1488 1488 1488 1488 1487 1487
1499 1496 1493 1490 1486 1483 1480 1478 1475 1474 1473 1474 1475 1472 1474 1480 1486 1490 1491 1493 1492 1492 1493 1494 1494 1495 1495 1494 1494 1492 1491 1491 1489 1486 1486 1485 1485 1485 1485 1486 1486 1485 1484
1493 1491 1487 1483 1481 1478 1477 1476 1474 1473 1473 1475 1478 1477 1481 1484 1489 1491 1491 1491 1491 1490 1490 1491 1491 1491 1491 1492 1492 1491 1491 1489 1486 1483 1482 1483 1484 1483 1484 1484 1484 1485 1482
1489 1487 1483 1479 1475 1473 1471 1470 1470 1471 1470 1472 1476 1476 1479 1483 1487 1489 1487 1486 1488 1488 1487 1489 1490 1490 1490 1490 1490 1491 1490 1487 1484 1483 1481 1483 1483 1482 1482 1482 1482 1481 1480
1486 1484 1481 1477 1473 1471 1469 1467 1467 1466 1468 1471 1474 1478 1479 1483 1486 1485 1483 1483 1485 1485 1486 1488 1489 1489 1489 1487 1488 1488 1487 1485 1484 1483 1483 1482 1481 1481 1481 1480 1480 1478 1476
1483 1481 1478 1476 1474 1472 1470 1467 1468 1468 1468 1469 1473 1476 1478 1481 1483 1482 1480 1481 1482 1484 1486 1487 1487 1488 1487 1486 1485 1485 1485 1485 1485 1485 1483 1481 1479 1480 1479 1480 1478 1476 1474
1479 1477 1477 1476 1475 1474 1474 1473 1474 1474 1473 1471 1471 1472 1475 1477 1479 1480 1480 1480 1481 1484 1487 1487 1486 1486 1486 1485 1485 1485 1487 1487 1486 1485 1484 1483 1480 1479 1478 1479 1478 1475 1472
1476 1476 1477 1475 1475 1475 1476 1479 1475 1475 1474 1473 1472 1474 1475 1476 1480 1481 1481 1481 1483 1486 1488 1487 1486 1487 1487 1486 1487 1487 1489 1489 1487 1487 1485 1483 1482 1481 1480 1479 1476 1474 1472
1474 1475 1476 1475 1474 1474 1476 1479 1473 1473 1473 1472 1472 1475 1477 1479 1481 1482 1482 1484 1486 1486 1487 1486 1487 1488 1491 1491 1491 1490 1491 1490 1488 1489 1488 1485 1484 1483 1482 1481 1477 1475 1474
1473 1472 1474 1474 1474 1473 1474 1474 1471 1472 1472 1473 1476 1477 1478 1480 1482 1485 1486 1488 1488 1489 1488 1488 1491 1492 1494 1493 1494 1494 1494 1492 1491 1491 1491 1488 1486 1485 1484 1482 1479 1478 1476
1469 1469 1472 1473 1473 1473 1474 1474 1472 1474 1475 1475 1476 1476 1476 1478 1481 1485 1488 1489 1490 1491 1490 1492 1494 1494 1495 1495 1495 1495 1495 1495 1495 1494 1493 1491 1489 1488 1487 1484 1481 1479 1477
1465 1466 1468 1469 1470 1470 1471 1471 1471 1472 1473 1475 1475 1476 1477 1479 1481 1483 1485 1488 1489 1491 1493 1494 1495 1496 1496 1497 1498 1497 1496 1497 1497 1496 1495 1494 1492 1491 1489 1486 1483 1481 1479
1462 1464 1465 1467 1468 1468 1468 1468 1469 1471 1473 1475 1476 1478 1478 1479 1480 1483 1484 1487 1489 1490 1492 1494 1496 1497 1498 1499 1499 1499 1500 1499 1497 1497 1496 1495 1494 1493 1490 1488 1486 1484 1482
1458 1460 1462 1463 1465 1465 1466 1465 1466 1469 1471 1473 1476 1477 1478 1479 1481 1483 1485 1486 1488 1489 1492 1495 1497 1497 1499 1500 1501 1501 1501 1499 1498 1498 1497 1496 1495 1494 1491 1490 1488 1486 1484
1454 1456 1459 1460 1461 1462 1464 1464 1466 1468 1470 1473 1475 1476 1477 1479 1481 1482 1484 1486 1487 1489 1492 1495 1497 1498 1499 1500 1501 1501 1500 1498 1497 1498 1497 1496 1494 1493 1491 1490 1488 1487 1486
1451 1453 1455 1456 1459 1461 1462 1464 1465 1466 1469 1471 1473 1475 1476 1478 1480 1482 1483 1485 1486 1489 1492 1495 1497 1499 1500 1500 1500 1500 1499 1499 1498 1498 1497 1495 1493 1492 1491 1490 1488 1487 1486
1447 1449 1451 1453 1455 1458 1460 1462 1463 1465 1467 1469 1471 1473 1475 1477 1479 1480 1482 1484 1487 1490 1492 1494 1496 1498 1498 1499 1498 1498 1499 1499 1498 1497 1496 1495 1493 1491 1490 1489 1488 1487 1485
1443 1446 1447 1449 1452 1455 1457 1459 1461 1463 1464 1466 1469 1471 1474 1476 1478 1479 1481 1484 1486 1487 1489 1491 1494 1495 1496 1496 1496 1497 1497 1497 1496 1495 1495 1494 1493 1492 1491 1490 1488 1486 1485
1439 1441 1443 1445 1448 1451 1453 1455 1457 1460 1461 1463 1466 1469 1471 1473 1475 1476 1479 1482 1483 1485 1486 1489 1491 1492 1493 1495 1495 1495 1495 1495 1495 1494 1494 1494 1493 1492 1491 1490 1488 1487 1485
1433 1436 1438 1441 1444 1447 1449 1451 1453 1455 1458 1460 1462 1465 1468 1470 1472 1474 1477 1480 1482 1484 1486 1488 1490 1492 1493 1494 1494 1494 1494 1493 1493 1493 1493 1494 1493 1492 1491 1490 1489 1487 1485